Content
SEND FEEDBACK

Daily
Averages
Monthly
Summary
Canada

VANCOUVER, BRITISH COLUMBIA


Home > North America > Canada > British Columbia
Elevation: 2 meters     Latitude: 49 11N     Longitude: 123 10W

WEATHER
 
SELECT A DAY
Number of Records: 249,704;   Date Range: 5/15/97 - 8/31/14
 
SHARE

PRINT THIS DATA

[ ← Previous Day ]
WEATHER ALMANAC - 28 MARCH, 2013
[ Next Day → ]
[ °F ]   °C
Weather ElementAverageHighLow
Temperature8.2 °C12 °C (3:15 pm)3 °C (6:55 am)
Dewpoint6.2 °C7 °C (12:35 am)3 °C (6:55 am)
Humidity88.1 %100 % (3:15 am)71 % (10:35 am)
Barometer1017.9 hPa1020.3 hPa (11:55 pm)1015.6 hPa (12:35 am)
Wind Speed1.9 km/h9.3 km/h (10:55 am)
Weather ElementAverage
Visibility14.8 km
Wind DirectionENE (56.6 °)

Weather ElementTotal
Precipitation---
Heating Degree Days10.8 (Base 18.3)
Averaged from 67 records on 28 March, 2013
WEATHER CONDITIONS BREAKOUT
WIND DIRECTION BREAKOUT
WEATHER BY HOUR - 28 MARCH, 2013
[ °F ]   °C
Local TimeTemperatureDewpointHumidityBarometerVisibilityWind DirectionWind SpeedGust SpeedPrecipitationEventsConditions
12:35 AM8 °C7 °C93 %1015.6 hPa16.1 kmCalmMostly Cloudy
12:55 AM8 °C7 °C93 %1015.6 hPa16.1 kmCalmMostly Cloudy
1:15 AM8 °C7 °C93 %1015.9 hPa16.1 kmCalmOvercast
1:35 AM8 °C6 °C87 %1015.9 hPa16.1 kmCalmMostly Cloudy
1:55 AM8 °C6 °C87 %1015.6 hPa16.1 kmCalmMostly Cloudy
2:15 AM7 °C6 °C93 %1015.9 hPa16.1 kmCalmPartly Cloudy
2:35 AM7 °C5 °C87 %1015.9 hPa16.1 kmCalmClear
3:15 AM5 °C5 °C100 %1015.9 hPa16.1 kmCalmClear
3:35 AM5 °C5 °C100 %1015.9 hPa16.1 kmNorthClear
3:55 AM5 °C5 °C100 %1016.3 hPa16.1 kmNorthClear
4:15 AM5 °C5 °C100 %1016.3 hPa16.1 kmCalmClear
4:35 AM5 °C4 °C93 %1016.3 hPa16.1 kmCalmClear
4:55 AM4 °C4 °C100 %1016.3 hPa16.1 kmCalmClear
5:15 AM5 °C4 °C93 %1016.3 hPa16.1 kmCalmClear
5:35 AM4 °C4 °C100 %1016.6 hPa14.5 kmCalmClear
5:55 AM4 °C4 °C100 %1016.6 hPa14.5 kmCalmClear
6:15 AM4 °C4 °C100 %1016.6 hPa16.1 kmCalmClear
6:35 AM4 °C4 °C100 %1016.9 hPa14.5 kmCalmClear
6:55 AM3 °C3 °C100 %1016.9 hPa12.9 kmCalmClear
7:15 AM4 °C4 °C100 %1017.3 hPa11.3 kmCalmClear
7:35 AM4 °C4 °C100 %1017.3 hPa11.3 kmCalmClear
7:55 AM4 °C4 °C100 %1017.6 hPa11.3 kmCalmClear
8:15 AM6 °C6 °C100 %1017.6 hPa11.3 kmCalmPartly Cloudy
8:35 AM7 °C7 °C100 %1017.9 hPa14.5 kmNorthPartly Cloudy
8:55 AM7 °C7 °C100 %1017.9 hPa14.5 kmNorthPartly Cloudy
9:15 AM8 °C7 °C93 %1017.9 hPa14.5 kmCalmPartly Cloudy
9:35 AM9 °C7 °C87 %1017.9 hPa16.1 kmCalmPartly Cloudy
9:55 AM10 °C6 °C76 %1018.3 hPa16.1 kmCalmPartly Cloudy
10:15 AM10 °C6 °C76 %1018.3 hPa16.1 kmCalmPartly Cloudy
10:35 AM11 °C6 °C71 %1018.6 hPa16.1 kmCalmClear
10:55 AM11 °C7 °C76 %1018.6 hPa16.1 kmNorth (350°)9.3 km/hClear
11:15 AM9 °C7 °C87 %1018.6 hPa16.1 kmNorth (350°)9.3 km/hClear
11:35 AM9 °C7 °C87 %1019 hPa16.1 kmNorth (360°)5.6 km/hScattered Clouds
11:55 AM9 °C7 °C87 %1019 hPa14.5 kmCalmPartly Cloudy
12:15 PM9 °C7 °C87 %1019 hPa16.1 kmNorth (360°)7.4 km/hClear
12:35 PM10 °C7 °C82 %1019 hPa14.5 kmCalmClear
12:55 PM10 °C7 °C82 %1019 hPa16.1 kmCalmPartly Cloudy
1:15 PM10 °C7 °C82 %1019 hPa14.5 kmNorth (360°)5.6 km/hPartly Cloudy
1:35 PM10 °C7 °C82 %1019 hPa12.9 kmNorth (360°)5.6 km/hClear
1:55 PM10 °C7 °C82 %1019 hPa14.5 kmNorth (10°)5.6 km/hClear
2:15 PM11 °C7 °C76 %1018.6 hPa14.5 kmNorth (360°)7.4 km/hClear
2:35 PM11 °C7 °C76 %1018.6 hPa14.5 kmNorth (10°)7.4 km/hClear
2:55 PM11 °C7 °C76 %1018.6 hPa14.5 kmNorth (360°)5.6 km/hClear
3:15 PM12 °C7 °C72 %1018.3 hPa14.5 kmNorth (360°)7.4 km/hClear
3:35 PM12 °C7 °C72 %1018.3 hPa16.1 kmCalmClear
3:55 PM12 °C7 °C72 %1018.3 hPa12.9 kmNorthClear
4:15 PM12 °C7 °C72 %1018.3 hPa16.1 kmNorth (10°)7.4 km/hClear
4:35 PM11 °C7 °C76 %1018.3 hPa12.9 kmNNE (20°)5.6 km/hClear
4:55 PM11 °C7 °C76 %1018.3 hPa14.5 kmNorth (10°)7.4 km/hClear
5:15 PM11 °C7 °C76 %1018.3 hPa14.5 kmNorth (360°)5.6 km/hClear
5:35 PM11 °C7 °C76 %1018.3 hPa12.9 kmCalmClear
5:55 PM11 °C7 °C76 %1018.3 hPa14.5 kmCalmClear
6:15 PM11 °C7 °C76 %1017.9 hPa14.5 kmNorth (10°)5.6 km/hClear
6:35 PM10 °C7 °C82 %1018.3 hPa12.9 kmCalmClear
6:55 PM10 °C7 °C82 %1018.3 hPa14.5 kmCalmClear
7:15 PM9 °C7 °C87 %1018.3 hPa11.3 kmCalmClear
7:35 PM9 °C7 °C87 %1018.3 hPa12.9 kmCalmClear
8:15 PM8 °C7 °C93 %1018.6 hPa14.5 kmCalmClear
8:35 PM8 °C7 °C93 %1018.6 hPa12.9 kmCalmClear
9:15 PM8 °C7 °C93 %1019 hPa16.1 kmCalmClear
9:35 PM8 °C7 °C93 %1019.3 hPa16.1 kmCalmClear
9:55 PM8 °C7 °C93 %1019.3 hPa16.1 kmCalmClear
10:15 PM8 °C7 °C93 %1019.3 hPa16.1 kmCalmClear
10:35 PM8 °C7 °C93 %1019.6 hPa16.1 kmCalmClear
10:55 PM8 °C7 °C93 %1019.6 hPa16.1 kmCalmClear
11:35 PM8 °C7 °C93 %1020 hPa16.1 kmSE (140°)9.3 km/hClear
11:55 PM7 °C7 °C100 %1020.3 hPa16.1 kmCalmClear
Hourly data recorded from CZBB, located 0 kilometers away from Vancouver, British Columbia







STORIES FROM OUR PARTNERS